Language: 


Des rapports , des résumés tant et plus, au choix de chacun....


Données statistiques de la station
Quotidien Rapport Mai 5, 2017 Unités:  Anglais    Métrique   les deux
« Précédent Jour
Suivant Jour »
Quotidien Hebdomadaire Mensuel Annuel Actuel
  Haut: Bas: Moyen:
Température: 57.9 °F 46.8 °F 52.3 °F
Pt de rosée: 50 °F 44.6 °F 46.9 °F
Humidité: 96 % 67 % 80 %
Vitesse du vent: 11 mph 0 mph 6.4 mph
Rafales: 13 mph - -
Vent:- - ENE
Pression: 30.1 in 29.9 in -
Précipitation: 0 in    
Historical Graphs
 
 
Données statistiques pour Mai 5, 2017
Heure Température Point de rosée Pression Vent Vitesse du vent Refales Humidité Pluie (taux horaire)
00:04 53.1 °F 50 °F 30.1 in NE 6 mph 8.7 mph 88 % 0 in
00:09 53.1 °F 50 °F 30.1 in NE 7.4 mph 8.7 mph 88 % 0 in
00:14 53.1 °F 50 °F 30.1 in NNE 7.4 mph 8.9 mph 88 % 0 in
00:19 53.1 °F 50 °F 30.1 in NE 5.4 mph 8.9 mph 88 % 0 in
00:24 53.1 °F 50 °F 30.1 in NNE 7.6 mph 8.9 mph 87 % 0 in
00:30 53.1 °F 50 °F 30.1 in NE 7.8 mph 11 mph 87 % 0 in
00:35 53.1 °F 48.2 °F 30.1 in NE 8.1 mph 11 mph 86 % 0 in
00:40 52.9 °F 48.2 °F 30.1 in NE 7.8 mph 8.7 mph 86 % 0 in
00:45 52.9 °F 48.2 °F 30.1 in NNE 8.7 mph 10.7 mph 86 % 0 in
00:50 52.9 °F 48.2 °F 30.1 in NE 8.9 mph 10.7 mph 86 % 0 in
00:55 52.7 °F 48.2 °F 30.1 in NE 8.5 mph 10.1 mph 85 % 0 in
01:00 52.7 °F 48.2 °F 30.1 in North 8.5 mph 10.1 mph 85 % 0 in
01:05 52.7 °F 48.2 °F 30.1 in NE 8.1 mph 9.8 mph 85 % 0 in
01:10 52.5 °F 48.2 °F 30.1 in NE 7.6 mph 10.1 mph 85 % 0 in
01:15 52.5 °F 48.2 °F 30.1 in NE 8.7 mph 10.3 mph 85 % 0 in
01:20 52.5 °F 48.2 °F 30.1 in NE 10.5 mph 10.5 mph 85 % 0 in
01:25 52.5 °F 48.2 °F 30.1 in NNE 7.6 mph 10.5 mph 85 % 0 in
01:30 52.5 °F 48.2 °F 30.1 in ENE 8.5 mph 9.6 mph 85 % 0 in
01:35 52.5 °F 48.2 °F 30.1 in NE 6.3 mph 8.7 mph 85 % 0 in
01:40 52.3 °F 48.2 °F 30.1 in NE 7.4 mph 9.8 mph 85 % 0 in
01:46 52.3 °F 48.2 °F 30.1 in NE 3.8 mph 9.8 mph 85 % 0 in
01:51 52.3 °F 48.2 °F 30.1 in ENE 7.6 mph 10.3 mph 84 % 0 in
01:56 52.2 °F 48.2 °F 30.1 in NE 8.7 mph 10.3 mph 84 % 0 in
02:01 52 °F 46.4 °F 30.1 in NE 7.4 mph 9.8 mph 83 % 0 in
02:06 51.6 °F 46.4 °F 30.1 in NNE 6.5 mph 8.7 mph 83 % 0 in
02:11 51.4 °F 46.4 °F 30.1 in NE 6.3 mph 10.5 mph 83 % 0 in
02:16 51.1 °F 46.4 °F 30.1 in ENE 5.6 mph 10.5 mph 83 % 0 in
02:21 50.7 °F 46.4 °F 30.1 in North 4.3 mph 8.1 mph 83 % 0 in
02:26 50.5 °F 46.4 °F 30.1 in NE 2.9 mph 6.7 mph 84 % 0 in
02:31 50.2 °F 46.4 °F 30.1 in NNE 2 mph 6.5 mph 84 % 0 in
02:36 49.6 °F 46.4 °F 30.1 in NE 4.3 mph 6 mph 85 % 0 in
02:41 49.3 °F 46.4 °F 30.1 in NE 5.6 mph 5.8 mph 86 % 0 in
02:46 48.9 °F 44.6 °F 30.1 in NE 2.9 mph 5.8 mph 86 % 0 in
02:51 48.9 °F 46.4 °F 30.1 in NE 5.6 mph 6.9 mph 87 % 0 in
02:56 48.9 °F 46.4 °F 30.1 in ENE 4.3 mph 6.9 mph 89 % 0 in
03:01 48.7 °F 46.4 °F 30.1 in NE 3.1 mph 6.3 mph 89 % 0 in
03:06 48.6 °F 46.4 °F 30.1 in NE 4.7 mph 6.3 mph 90 % 0 in
03:11 48.6 °F 46.4 °F 30.1 in NNE 5.6 mph 7.6 mph 91 % 0 in
03:16 48.6 °F 46.4 °F 30.1 in NE 4.3 mph 7.6 mph 91 % 0 in
03:21 48.4 °F 46.4 °F 30.1 in NE 4.3 mph 6.5 mph 91 % 0 in
03:26 48.4 °F 46.4 °F 30.1 in NE 3.1 mph 6.5 mph 91 % 0 in
03:32 48 °F 46.4 °F 30.1 in ENE 5.4 mph 6.7 mph 92 % 0 in
03:37 47.8 °F 46.4 °F 30.1 in Calm   6.7 mph 92 % 0 in
03:42 47.5 °F 46.4 °F 30.1 in NE 1.6 mph 4.7 mph 91 % 0 in
03:47 47.3 °F 46.4 °F 30.1 in NE 3.4 mph 4.7 mph 91 % 0 in
03:52 47.1 °F 44.6 °F 30.1 in North 4 mph 5.8 mph 92 % 0 in
03:57 46.9 °F 46.4 °F 30.1 in NE 5.4 mph 5.8 mph 93 % 0 in
04:02 46.9 °F 46.4 °F 30.1 in NNE 5.6 mph 6 mph 93 % 0 in
04:07 46.8 °F 44.6 °F 30.1 in NE 8.1 mph 8.1 mph 94 % 0 in
04:12 46.9 °F 46.4 °F 30.1 in North 7.6 mph 8.1 mph 94 % 0 in
04:17 47.1 °F 46.4 °F 30.1 in NNE 5.4 mph 8.7 mph 95 % 0 in
04:22 47.3 °F 46.4 °F 30.1 in NE 0.9 mph 8.7 mph 95 % 0 in
04:27 47.5 °F 46.4 °F 30.1 in NNE 6.3 mph 7.2 mph 95 % 0 in
04:32 47.8 °F 48.2 °F 30.1 in NE 4 mph 8.5 mph 96 % 0 in
04:37 48 °F 48.2 °F 30.1 in East 3.8 mph 8.5 mph 96 % 0 in
04:42 48.4 °F 48.2 °F 30.1 in NE 5.4 mph 7.2 mph 96 % 0 in
04:47 48.6 °F 48.2 °F 30.1 in NE 2.7 mph 7.2 mph 96 % 0 in
04:52 48.7 °F 48.2 °F 30.1 in North 3.1 mph 7.4 mph 95 % 0 in
04:57 48.9 °F 48.2 °F 30.1 in ENE 3.8 mph 7.4 mph 95 % 0 in
05:02 49.1 °F 48.2 °F 30.1 in NNE 4.9 mph 6.5 mph 95 % 0 in
05:07 49.1 °F 48.2 °F 30.1 in NE 5.4 mph 6.3 mph 95 % 0 in
05:13 49.3 °F 48.2 °F 30.1 in Calm   6.3 mph 95 % 0 in
05:18 49.3 °F 48.2 °F 30.1 in NE 2.9 mph 6.3 mph 95 % 0 in
05:23 49.3 °F 48.2 °F 30.1 in NE 3.4 mph 5.4 mph 94 % 0 in
05:28 49.3 °F 48.2 °F 30.1 in North 2.5 mph 5.8 mph 94 % 0 in
05:33 49.3 °F 48.2 °F 30.1 in NE 1.6 mph 5.8 mph 94 % 0 in
05:38 49.3 °F 48.2 °F 30.1 in NNE 2.5 mph 4.7 mph 94 % 0 in
05:43 49.3 °F 48.2 °F 30.1 in NE 3.6 mph 4.7 mph 94 % 0 in
05:48 49.3 °F 48.2 °F 30.1 in North 2.9 mph 4.7 mph 94 % 0 in
05:53 49.3 °F 48.2 °F 30.1 in NE 4.3 mph 5.4 mph 94 % 0 in
05:58 49.3 °F 48.2 °F 30.1 in NE 6.5 mph 8.1 mph 94 % 0 in
06:03 49.5 °F 48.2 °F 30.1 in NE 4 mph 8.1 mph 94 % 0 in
06:08 49.6 °F 48.2 °F 30.1 in NE 5.8 mph 6.7 mph 94 % 0 in
06:13 49.6 °F 48.2 °F 30.1 in NE 5.8 mph 6.5 mph 94 % 0 in
06:18 49.6 °F 48.2 °F 30.1 in NE 7.6 mph 7.6 mph 94 % 0 in
06:23 49.6 °F 48.2 °F 30.1 in NNE 7.2 mph 9.8 mph 94 % 0 in
06:28 49.8 °F 48.2 °F 30.1 in ENE 6.3 mph 9.8 mph 94 % 0 in
06:33 49.6 °F 48.2 °F 30.1 in NE 7.2 mph 8.9 mph 93 % 0 in
06:38 49.6 °F 48.2 °F 30.1 in NNE 8.7 mph 11 mph 93 % 0 in
06:43 49.6 °F 48.2 °F 30.1 in NE 4.3 mph 11 mph 93 % 0 in
06:49 49.5 °F 48.2 °F 30.1 in NE 7.2 mph 9.6 mph 93 % 0 in
06:54 49.5 °F 48.2 °F 30.1 in NE 5.4 mph 8.7 mph 93 % 0 in
06:59 49.3 °F 48.2 °F 30.1 in NNE 6 mph 8.9 mph 93 % 0 in
07:04 49.3 °F 48.2 °F 30.1 in NE 7.6 mph 8.9 mph 93 % 0 in
07:09 49.3 °F 48.2 °F 30.1 in NNE 5.6 mph 8.5 mph 93 % 0 in
07:14 49.1 °F 48.2 °F 30.1 in NNE 6.7 mph 8.5 mph 93 % 0 in
07:16 49.1 °F 48.2 °F 30.1 in NE 6 mph 9.2 mph 93 % 0 in
07:21 48.9 °F 48.2 °F 30.1 in NNE 8.1 mph 9.8 mph 93 % 0 in
07:26 48.9 °F 48.2 °F 30.1 in North 7.2 mph 10.1 mph 93 % 0 in
07:31 48.9 °F 48.2 °F 30.1 in North 7.8 mph 10.1 mph 93 % 0 in
07:36 48.9 °F 48.2 °F 30.1 in NE 7.8 mph 9.8 mph 93 % 0 in
07:41 48.9 °F 48.2 °F 30.1 in NNE 7.6 mph 10.3 mph 93 % 0 in
07:46 48.7 °F 46.4 °F 30.1 in NE 8.5 mph 11.2 mph 92 % 0 in
07:51 48.7 °F 46.4 °F 30.1 in NE 9.8 mph 11.2 mph 92 % 0 in
07:56 48.7 °F 46.4 °F 30.1 in NNW 8.5 mph 9.8 mph 92 % 0 in
08:01 48.7 °F 46.4 °F 30.1 in NE 6.7 mph 9.6 mph 91 % 0 in
08:06 48.7 °F 46.4 °F 30.1 in NE 6.5 mph 10.3 mph 91 % 0 in
08:12 48.7 °F 46.4 °F 30.1 in North 7.8 mph 10.3 mph 90 % 0 in
08:17 48.7 °F 46.4 °F 30.1 in NE 10.1 mph 11 mph 89 % 0 in
08:22 48.7 °F 46.4 °F 30.1 in NE 5.6 mph 11 mph 89 % 0 in
08:27 48.7 °F 46.4 °F 30.1 in East 6.5 mph 10.7 mph 88 % 0 in
08:32 48.9 °F 46.4 °F 30.1 in ENE 7.8 mph 10.7 mph 88 % 0 in
08:37 48.9 °F 46.4 °F 30.1 in NE 7.6 mph 9.8 mph 88 % 0 in
08:39 48.9 °F 46.4 °F 30.1 in NE 7.6 mph 10.1 mph 88 % 0 in
08:44 48.9 °F 46.4 °F 30.1 in NE 7.6 mph 10.1 mph 88 % 0 in
08:49 49.1 °F 46.4 °F 30.1 in NE 8.5 mph 8.9 mph 88 % 0 in
08:54 49.1 °F 46.4 °F 30.1 in ENE 6.5 mph 11.4 mph 88 % 0 in
08:59 49.1 °F 46.4 °F 30.1 in NE 7.4 mph 11.4 mph 88 % 0 in
09:04 49.3 °F 46.4 °F 30.1 in NE 4 mph 11 mph 88 % 0 in
09:09 49.5 °F 46.4 °F 30.1 in ENE 11 mph 11 mph 88 % 0 in
09:14 49.5 °F 46.4 °F 30.1 in ENE 5.4 mph 11 mph 88 % 0 in
09:19 49.5 °F 46.4 °F 30.1 in NE 7.8 mph 10.3 mph 87 % 0 in
09:24 49.6 °F 46.4 °F 30.1 in NNE 8.5 mph 10.3 mph 87 % 0 in
09:29 49.6 °F 46.4 °F 30.1 in ENE 7.4 mph 10.7 mph 86 % 0 in
09:34 49.6 °F 46.4 °F 30.1 in NE 4.9 mph 10.7 mph 86 % 0 in
09:39 49.8 °F 46.4 °F 30.1 in NNE 8.5 mph 11 mph 86 % 0 in
09:44 50 °F 46.4 °F 30.1 in NNE 5.8 mph 11 mph 86 % 0 in
09:49 50.2 °F 46.4 °F 30.1 in ENE 7.8 mph 8.7 mph 86 % 0 in
09:54 50.4 °F 46.4 °F 30.1 in NE 6.3 mph 8.7 mph 85 % 0 in
10:00 50.5 °F 46.4 °F 30.1 in NE 4.9 mph 8.7 mph 85 % 0 in
10:05 50.9 °F 48.2 °F 30.1 in NE 9.6 mph 9.6 mph 85 % 0 in
10:10 50.9 °F 46.4 °F 30.1 in NE 10.5 mph 10.7 mph 84 % 0 in
10:15 51.1 °F 46.4 °F 30.1 in NE 5.4 mph 10.7 mph 83 % 0 in
10:20 51.4 °F 46.4 °F 30.1 in NE 7.4 mph 9.8 mph 83 % 0 in
10:25 51.6 °F 46.4 °F 30.1 in NE 10.1 mph 10.1 mph 82 % 0 in
10:30 51.8 °F 46.4 °F 30.1 in East 6 mph 10.1 mph 81 % 0 in
10:35 51.8 °F 46.4 °F 30.1 in NE 9.8 mph 11.9 mph 79 % 0 in
10:40 52 °F 46.4 °F 30.1 in ENE 8.9 mph 11.9 mph 79 % 0 in
10:45 52.3 °F 46.4 °F 30.1 in NE 8.5 mph 10.3 mph 78 % 0 in
10:50 52.9 °F 46.4 °F 30.1 in NNE 7.6 mph 8.9 mph 78 % 0 in
10:55 52.9 °F 46.4 °F 30.1 in ENE 8.7 mph 10.1 mph 76 % 0 in
11:00 53.1 °F 46.4 °F 30.1 in NE 7.2 mph 10.1 mph 76 % 0 in
11:05 52.9 °F 46.4 °F 30.1 in NE 7.4 mph 10.1 mph 76 % 0 in
11:10 53.1 °F 46.4 °F 30.1 in North 7.6 mph 9.2 mph 77 % 0 in
11:16 53.1 °F 46.4 °F 30.1 in NE 7.4 mph 9.8 mph 77 % 0 in
11:21 52.9 °F 46.4 °F 30.1 in NE 8.7 mph 9.8 mph 75 % 0 in
11:26 52.7 °F 46.4 °F 30.1 in ENE 8.5 mph 9.6 mph 75 % 0 in
11:31 52.7 °F 46.4 °F 30.1 in East 9.6 mph 9.6 mph 75 % 0 in
11:36 52.7 °F 46.4 °F 30.1 in ENE 7.2 mph 9.6 mph 76 % 0 in
11:41 52.7 °F 46.4 °F 30.1 in NE 6 mph 9.6 mph 75 % 0 in
11:46 52.5 °F 44.6 °F 30.1 in ENE 7.2 mph 9.6 mph 75 % 0 in
11:51 52.7 °F 46.4 °F 30.1 in NE 6.5 mph 9.8 mph 75 % 0 in
11:56 53.1 °F 46.4 °F 30.1 in NE 6.5 mph 9.8 mph 75 % 0 in
12:01 53.1 °F 46.4 °F 30.1 in NE 6 mph 7.8 mph 75 % 0 in
12:06 53.2 °F 46.4 °F 30.1 in ENE 6.3 mph 7.6 mph 75 % 0 in
12:11 53.2 °F 46.4 °F 30.1 in ENE 7.8 mph 8.1 mph 75 % 0 in
12:16 53.2 °F 46.4 °F 30.1 in NNE 8.5 mph 8.5 mph 75 % 0 in
12:21 53.4 °F 46.4 °F 30.1 in NE 7.4 mph 8.7 mph 75 % 0 in
12:26 53.8 °F 46.4 °F 30.1 in East 6 mph 8.7 mph 75 % 0 in
12:36 53.8 °F 46.4 °F 30.1 in East 6.3 mph 8.1 mph 74 % 0 in
12:41 53.8 °F 46.4 °F 30.1 in East 7.8 mph 8.7 mph 74 % 0 in
12:46 53.4 °F 46.4 °F 30.1 in NE 7.2 mph 10.5 mph 74 % 0 in
12:51 53.4 °F 46.4 °F 30.1 in ENE 4.9 mph 10.5 mph 74 % 0 in
12:52 53.4 °F 46.4 °F 30.1 in NE 6.3 mph 10.5 mph 74 % 0 in
12:57 53.8 °F 46.4 °F 30.1 in East 6 mph 8.1 mph 74 % 0 in
13:02 54.3 °F 46.4 °F 30.1 in ENE 5.4 mph 8.1 mph 74 % 0 in
13:07 54.9 °F 48.2 °F 30.1 in NNE 7.4 mph 7.6 mph 74 % 0 in
13:12 55.4 °F 48.2 °F 30.1 in East 4 mph 8.1 mph 73 % 0 in
13:17 55.6 °F 48.2 °F 30.1 in ENE 8.1 mph 8.9 mph 72 % 0 in
13:22 55.6 °F 48.2 °F 30.1 in ESE 7.6 mph 8.9 mph 72 % 0 in
13:27 55.8 °F 48.2 °F 30.1 in East 7.4 mph 8.1 mph 72 % 0 in
13:33 55.9 °F 48.2 °F 30.1 in NE 7.6 mph 8.1 mph 72 % 0 in
13:38 56.1 °F 48.2 °F 30.1 in East 6.5 mph 8.5 mph 72 % 0 in
13:43 55.9 °F 48.2 °F 30.1 in East 6 mph 9.8 mph 71 % 0 in
13:48 56.3 °F 48.2 °F 30.1 in NNE 5.4 mph 9.8 mph 72 % 0 in
13:53 56.8 °F 48.2 °F 30.1 in ENE 6.5 mph 7.6 mph 72 % 0 in
13:58 57.6 °F 48.2 °F 30.1 in East 6.5 mph 8.5 mph 71 % 0 in
14:03 57.6 °F 48.2 °F 30.1 in East 7.8 mph 8.5 mph 70 % 0 in
14:08 57 °F 48.2 °F 30.1 in East 4 mph 8.5 mph 69 % 0 in
14:09 57 °F 48.2 °F 30.1 in East 6 mph 8.5 mph 69 % 0 in
14:14 57.2 °F 48.2 °F 30.1 in ENE 4.9 mph 7.8 mph 69 % 0 in
14:19 57.4 °F 48.2 °F 30.1 in ESE 4.3 mph 7.8 mph 69 % 0 in
14:24 57.6 °F 48.2 °F 30.1 in NE 7.6 mph 7.8 mph 69 % 0 in
14:29 57.6 °F 48.2 °F 30.1 in ESE 6 mph 8.5 mph 69 % 0 in
14:31 57.7 °F 48.2 °F 30.1 in ENE 7.4 mph 8.5 mph 69 % 0 in
14:36 57.7 °F 48.2 °F 30.1 in NE 8.1 mph 8.5 mph 68 % 0 in
14:41 57.9 °F 48.2 °F 30.1 in East 6.3 mph 8.5 mph 68 % 0 in
14:46 57.6 °F 48.2 °F 30.1 in East 1.1 mph 10.3 mph 67 % 0 in
14:51 57.7 °F 48.2 °F 30.1 in East 5.8 mph 10.3 mph 67 % 0 in
14:56 57.2 °F 46.4 °F 30.1 in ESE 6 mph 8.7 mph 67 % 0 in
15:01 57.6 °F 48.2 °F 30.1 in East 5.4 mph 9.2 mph 69 % 0 in
15:06 57.9 °F 48.2 °F 30.1 in East 7.8 mph 9.2 mph 68 % 0 in
15:11 57.6 °F 48.2 °F 30.1 in East 7.8 mph 8.7 mph 67 % 0 in
15:16 57.6 °F 48.2 °F 30.1 in East 6.5 mph 8.7 mph 67 % 0 in
15:21 57.2 °F 46.4 °F 30 in ENE 6.3 mph 8.1 mph 67 % 0 in
15:26 57 °F 46.4 °F 30 in East 7.2 mph 8.5 mph 67 % 0 in
15:27 57 °F 46.4 °F 30 in NE 4 mph 8.5 mph 67 % 0 in
15:32 57.9 °F 48.2 °F 30 in ENE 4.9 mph 8.7 mph 68 % 0 in
15:37 57.7 °F 48.2 °F 30 in NE 6.3 mph 8.7 mph 67 % 0 in
15:42 57 °F 46.4 °F 30 in ENE 5.8 mph 8.1 mph 67 % 0 in
15:47 56.7 °F 46.4 °F 30 in East 5.6 mph 8.1 mph 68 % 0 in
15:52 56.5 °F 46.4 °F 30 in ESE 5.8 mph 7.2 mph 68 % 0 in
15:57 56.8 °F 46.4 °F 30 in East 4 mph 7.2 mph 68 % 0 in
16:02 56.8 °F 46.4 °F 30 in ENE 4.9 mph 7.2 mph 68 % 0 in
16:07 57 °F 48.2 °F 30 in NE 6 mph 7.8 mph 68 % 0 in
16:12 56.8 °F 46.4 °F 30 in NE 6.5 mph 7.8 mph 68 % 0 in
16:17 56.7 °F 46.4 °F 30 in NE 7.6 mph 7.6 mph 68 % 0 in
16:22 56.3 °F 46.4 °F 30 in East 6.3 mph 8.5 mph 68 % 0 in
16:23 56.3 °F 46.4 °F 30 in ESE 5.6 mph 8.5 mph 68 % 0 in
16:28 56.1 °F 46.4 °F 30 in ENE 7.8 mph 9.8 mph 68 % 0 in
16:33 55.9 °F 46.4 °F 30 in East 7.2 mph 9.8 mph 68 % 0 in
16:38 55.9 °F 46.4 °F 30 in ENE 5.8 mph 7.8 mph 69 % 0 in
16:43 55.9 °F 46.4 °F 30 in East 6 mph 7.6 mph 70 % 0 in
16:48 56.1 °F 46.4 °F 30 in ENE 5.4 mph 7.6 mph 70 % 0 in
16:53 56.3 °F 48.2 °F 30.1 in ENE 6 mph 7.6 mph 70 % 0 in
16:58 56.5 °F 48.2 °F 30.1 in ENE 5.8 mph 8.7 mph 70 % 0 in
17:03 56.7 °F 46.4 °F 30.1 in NE 9.6 mph 10.1 mph 69 % 0 in
17:04 56.7 °F 46.4 °F 30.1 in NNE 8.7 mph 10.1 mph 69 % 0 in
17:09 56.8 °F 46.4 °F 30 in NE 8.1 mph 10.5 mph 69 % 0 in
17:14 57.4 °F 48.2 °F 30 in NE 7.8 mph 10.5 mph 69 % 0 in
17:19 57.6 °F 48.2 °F 30 in NNE 7.8 mph 13 mph 68 % 0 in
17:24 57.9 °F 48.2 °F 30 in NE 4 mph 13 mph 69 % 0 in
17:29 57.4 °F 46.4 °F 30 in ENE 7.4 mph 10.7 mph 67 % 0 in
17:34 57 °F 46.4 °F 30 in East 7.6 mph 12.8 mph 67 % 0 in
17:39 57 °F 46.4 °F 30 in ENE 6.3 mph 12.8 mph 67 % 0 in
17:44 56.8 °F 46.4 °F 30 in NNE 7.4 mph 11 mph 68 % 0 in
17:49 56.8 °F 46.4 °F 30 in ENE 8.5 mph 10.7 mph 69 % 0 in
17:51 57 °F 48.2 °F 30 in NE 8.7 mph 10.7 mph 69 % 0 in
17:56 56.8 °F 46.4 °F 30 in ENE 7.8 mph 10.5 mph 69 % 0 in
18:01 56.7 °F 46.4 °F 30 in ENE 9.8 mph 10.5 mph 69 % 0 in
18:06 56.8 °F 46.4 °F 30 in ENE 7.8 mph 12.1 mph 69 % 0 in
18:11 57.4 °F 48.2 °F 30 in NE 8.1 mph 12.1 mph 68 % 0 in
18:16 57.6 °F 48.2 °F 30 in NE 5.8 mph 10.1 mph 68 % 0 in
18:21 57.2 °F 48.2 °F 30 in NE 8.7 mph 11 mph 68 % 0 in
18:26 56.7 °F 46.4 °F 30 in NNE 6.3 mph 11 mph 68 % 0 in
18:31 56.3 °F 46.4 °F 30 in ENE 6 mph 10.7 mph 68 % 0 in
18:36 56.3 °F 46.4 °F 30 in NE 5.4 mph 10.7 mph 68 % 0 in
18:41 56.1 °F 46.4 °F 30 in NE 10.3 mph 10.3 mph 68 % 0 in
18:46 56.1 °F 46.4 °F 30 in East 5.8 mph 10.3 mph 69 % 0 in
18:51 56.1 °F 46.4 °F 30 in ENE 6.5 mph 8.7 mph 70 % 0 in
18:56 56.1 °F 46.4 °F 30 in ENE 5.8 mph 8.1 mph 70 % 0 in
19:01 56.1 °F 46.4 °F 30 in NE 7.8 mph 8.1 mph 70 % 0 in
19:06 55.9 °F 46.4 °F 30 in ENE 7.2 mph 9.4 mph 70 % 0 in
19:11 56.1 °F 46.4 °F 30 in East 7.4 mph 9.4 mph 70 % 0 in
19:16 56.7 °F 48.2 °F 30 in ENE 7.8 mph 8.5 mph 70 % 0 in
19:21 56.8 °F 46.4 °F 30 in ENE 7.4 mph 10.1 mph 69 % 0 in
19:26 56.8 °F 46.4 °F 30 in ENE 5.6 mph 10.1 mph 68 % 0 in
19:31 56.8 °F 46.4 °F 30 in East 7.8 mph 9.8 mph 68 % 0 in
19:36 56.7 °F 46.4 °F 30 in East 5.8 mph 9.8 mph 68 % 0 in
19:41 56.3 °F 46.4 °F 30 in ENE 6.5 mph 8.5 mph 68 % 0 in
19:47 55.8 °F 46.4 °F 30 in ENE 6.9 mph 8.5 mph 68 % 0 in
19:52 55.2 °F 46.4 °F 29.9 in ENE 8.5 mph 8.5 mph 69 % 0 in
19:57 55.4 °F 46.4 °F 29.9 in ENE 6 mph 8.7 mph 69 % 0 in
20:02 55.2 °F 46.4 °F 29.9 in East 7.2 mph 8.7 mph 70 % 0 in
20:07 55 °F 46.4 °F 30 in ENE 1.3 mph 8.5 mph 70 % 0 in
20:08 55 °F 46.4 °F 30 in East 4.9 mph 8.1 mph 71 % 0 in
20:13 54.9 °F 46.4 °F 30 in NE 4.3 mph 7.2 mph 71 % 0 in
20:18 54.7 °F 46.4 °F 30 in East 5.8 mph 7.4 mph 73 % 0 in
20:23 54.7 °F 46.4 °F 30 in NNE 5.6 mph 7.4 mph 73 % 0 in
20:28 54.5 °F 46.4 °F 30 in NE 7.4 mph 10.3 mph 73 % 0 in
20:33 54 °F 46.4 °F 30 in NE 6.9 mph 10.3 mph 73 % 0 in
20:38 53.6 °F 46.4 °F 30 in ENE 5.8 mph 8.5 mph 73 % 0 in
20:43 53.4 °F 46.4 °F 30 in NE 5.6 mph 8.5 mph 74 % 0 in
20:48 53.1 °F 44.6 °F 30 in NE 6.9 mph 8.5 mph 74 % 0 in
20:53 52.9 °F 46.4 °F 30 in NE 6.5 mph 8.5 mph 75 % 0 in
20:58 52.7 °F 46.4 °F 30 in ENE 4.3 mph 8.1 mph 75 % 0 in
21:03 52.3 °F 44.6 °F 30 in ENE 5.8 mph 8.1 mph 75 % 0 in
21:08 52 °F 44.6 °F 30 in ENE 7.4 mph 7.8 mph 76 % 0 in
21:13 51.8 °F 44.6 °F 30 in ENE 6.3 mph 7.8 mph 76 % 0 in
21:18 51.6 °F 44.6 °F 30 in ENE 6 mph 7.6 mph 77 % 0 in
21:23 51.3 °F 44.6 °F 30 in NE 4.7 mph 7.6 mph 78 % 0 in
21:28 51.1 °F 44.6 °F 30 in ENE 4.3 mph 7.8 mph 78 % 0 in
21:29 51.1 °F 44.6 °F 30 in NE 6.3 mph 7.8 mph 78 % 0 in
21:34 50.9 °F 44.6 °F 30 in ENE 4.9 mph 7.8 mph 79 % 0 in
21:39 50.7 °F 44.6 °F 30 in ENE 6 mph 7.8 mph 79 % 0 in
21:44 50.5 °F 44.6 °F 30 in NE 6 mph 7.4 mph 80 % 0 in
21:49 50.5 °F 44.6 °F 30 in NE 5.6 mph 8.5 mph 80 % 0 in
21:54 50.4 °F 44.6 °F 30 in NE 6.7 mph 8.5 mph 81 % 0 in
21:59 50.4 °F 44.6 °F 30 in ENE 8.1 mph 9.8 mph 81 % 0 in
22:04 50.4 °F 44.6 °F 30 in NE 6.9 mph 9.8 mph 81 % 0 in
22:09 50.2 °F 44.6 °F 30 in NE 6 mph 8.7 mph 82 % 0 in
22:14 50.2 °F 44.6 °F 30 in NE 6 mph 8.7 mph 82 % 0 in
22:19 50.2 °F 44.6 °F 30 in ENE 7.6 mph 10.5 mph 83 % 0 in
22:24 50 °F 44.6 °F 29.9 in NE 7.4 mph 10.5 mph 83 % 0 in
22:29 49.8 °F 46.4 °F 29.9 in NNE 5.8 mph 8.7 mph 84 % 0 in
22:34 49.8 °F 46.4 °F 29.9 in NE 7.6 mph 9.2 mph 84 % 0 in
22:39 49.6 °F 44.6 °F 29.9 in NE 6.3 mph 9.2 mph 84 % 0 in
22:44 49.5 °F 44.6 °F 29.9 in NE 5.8 mph 8.5 mph 84 % 0 in
22:49 49.3 °F 46.4 °F 29.9 in NNE 7.8 mph 8.9 mph 85 % 0 in
22:54 49.1 °F 46.4 °F 29.9 in NE 6 mph 9.6 mph 85 % 0 in
22:55 49.1 °F 46.4 °F 29.9 in NE 7.6 mph 9.6 mph 86 % 0 in
23:00 49.1 °F 46.4 °F 29.9 in ENE 6 mph 9.6 mph 86 % 0 in
23:05 48.9 °F 44.6 °F 29.9 in ENE 5.6 mph 9.4 mph 86 % 0 in
23:10 48.7 °F 44.6 °F 29.9 in NE 8.1 mph 8.1 mph 86 % 0 in
23:15 48.7 °F 44.6 °F 29.9 in ENE 6.7 mph 8.1 mph 86 % 0 in
23:20 48.7 °F 44.6 °F 29.9 in NE 5.8 mph 8.1 mph 86 % 0 in
23:25 48.6 °F 46.4 °F 29.9 in ENE 6.3 mph 7.8 mph 87 % 0 in
23:30 48.6 °F 46.4 °F 29.9 in NE 5.6 mph 7.8 mph 87 % 0 in
23:35 48.4 °F 44.6 °F 29.9 in ENE 5.4 mph 7.4 mph 88 % 0 in
23:40 48.4 °F 44.6 °F 29.9 in ENE 7.8 mph 7.8 mph 88 % 0 in
23:45 48.4 °F 46.4 °F 29.9 in ENE 6 mph 7.8 mph 89 % 0 in
23:50 48.4 °F 46.4 °F 29.9 in ENE 8.1 mph 8.7 mph 89 % 0 in
23:55 48.6 °F 46.4 °F 29.9 in ENE 7.6 mph 8.7 mph 90 % 0 in
Le Gheer Warneton
Courtoisie de Weather Underground - 2.25 mb

Mise a jour : 17-12-17 07:20:13
Généré par Cumulus 1.9.4 (1099)